Flight Track Log - Related Links

Times and Time Zones

All times are in EDT time to prevent confusion due to time zone crossing. See the N6ZQ flight status page for this flight to view local times or setup timezone preferences in your user account.

Time Position Orientation Groundspeed Altitude Reporting Facility
EDT Latitude Longitude Course Direction KTS MPH feet Rate Location/Type
Mon 12:03:53 PM 38.3333 -77.3667 52° Northeast 156 180 2,500  Level Potomac TRACON
Mon 12:04:54 PM 38.3667 -77.3167 50° Northeast 184 212 3,000 200 Climbing Potomac TRACON
Mon 12:05:53 PM 38.4000 -77.2500 57° Northeast 188 216 2,900 -50 Descending Potomac TRACON
Mon 12:06:53 PM 38.4333 -77.2000 50° Northeast 187 215 2,900  Level Potomac TRACON
Mon 12:07:48 PM 38.4500 -77.1500 67° East 186 214 2,900  Level Potomac TRACON
Mon 12:08:48 PM 38.4833 -77.1000 50° Northeast 184 212 2,900 50 Level Potomac TRACON
Mon 12:09:00 PM 38.4593 -77.1351 52° Northeast  Level FlightAware Approximate
Mon 12:09:48 PM 38.5167 -77.0500 50° Northeast 177 204 3,000  Level Potomac TRACON
Mon 12:10:49 PM 38.5500 -77.0000 50° Northeast 185 213 3,000  Level Potomac TRACON
Mon 12:11:43 PM 38.5833 -76.9667 38° Northeast 184 212 3,000  Level Potomac TRACON
Mon 12:12:43 PM 38.6167 -76.9000 57° Northeast 186 214 3,000  Level Potomac TRACON
Mon 12:13:43 PM 38.6333 -76.8500 67° East 182 209 3,000  Level Potomac TRACON
Mon 12:14:43 PM 38.6667 -76.8000 49° Northeast 182 209 3,000  Level Potomac TRACON
Mon 12:15:44 PM 38.7000 -76.7500 49° Northeast 183 211 3,000  Level Potomac TRACON
Mon 12:16:50 PM 38.7333 -76.7000 49° Northeast 178 205 3,000  Level Potomac TRACON
Mon 12:17:44 PM 38.7667 -76.6500 49° Northeast 182 209 3,000  Level Potomac TRACON
Mon 12:18:45 PM 38.8000 -76.6000 49° Northeast 174 200 3,000 -198 Level Potomac TRACON
Mon 12:19:45 PM 38.8333 -76.5500 49° Northeast 191 220 2,600 -500 Descending Potomac TRACON
Mon 12:20:45 PM 38.8667 -76.5000 49° Northeast 198 228 2,000 -300 Descending Potomac TRACON
Mon 12:21:45 PM 38.8833 -76.4500 67° East 174 200 2,000 -365 Level Potomac TRACON
Mon 12:22:40 PM 38.9167 -76.4000 49° Northeast 188 216 1,300 -764 Descending Potomac TRACON

Login

Don't have an account? Register now (free) for customized features, flight alerts, and more!